Погода в Табунах

Россия / Алтайский край     52°46′29″N   78°47′06″E
темп.,
°C
ветер,
м/с
пор.,
м/с
влажн.,
%
обл.,
%
осадки,
мм/ч
давл.,
гПа
погр.,
м
9 декабря, чт
чт901:00−19зюз359988 0.1 104479
04:00−23зюз3410044 0.0 104547
07:00−24зюз341005 0.0 104652
10:00−23зюз34995 0.0 104854
13:00−19юз36955 0.0 1049151
16:00−19юз36935 0.0 1049120
19:00−21юз369699 0.0 104960
22:00−18ююз4891100 0.0 1049151
10 декабря, пт
пт1001:00−16ююз4889100 0.0 1048176
04:00−13ююз4987100 0.0 1046271
07:00−12ююз5986100 0.0 1045237
10:00−11ююз498790 0.1 1045247
13:00−10ююз498378 0.1 1045280
16:00−9ююз4883100 0.0 1044214
19:00−13ю35865 0.0 104458
22:00−13ю48855 0.0 104393
11 декабря, сб
сб1101:00−13ю498211 0.0 1041114
04:00−12ююв4980100 0.0 1039121
07:00−11ююв41178100 0.0 1037154
10:00−10ююв51378100 0.0 1035195
13:00−8ю51278100 0.0 1033246
16:00−7ю51377100 0.0 1030262
19:00−8ю51279100 0.0 1028241
22:00−9ю31086100 0.0 1027169
12 декабря, вс
вс1201:00−12ю3589100 0.0 102657
04:00−11ююз2490100 0.0 102451
07:00−16зсз2296100 0.0 10259
10:00−12с3693100 0.0 1025156
13:00−11ссз4893100 0.0 1027263
16:00−11сз489194 0.0 1029269
19:00−18сз47975 0.0 103299
22:00−20зсз35995 0.0 103469
13 декабря, пн
пн1301:00−21з34995 0.0 103548
04:00−22з34995 0.0 103649
07:00−21зюз34985 0.0 103655
10:00−19юз3696100 0.0 103598
13:00−15юз51092100 0.0 1034250
16:00−13юз61290100 0.0 1031344
19:00−12юз61289100 0.0 1030356
22:00−11юз51089100 0.0 1028374